Weather History for KCKC - June, 2013

Change the Weather History Date:

Tuesday, June 4, 2013

  Actual Average Record
Temperature  
Mean Temperature 45 °F -  
Max Temperature 60 °F 63 °F 73 °F (2004)
Min Temperature 30 °F 42 °F 30 °F (2013)
Degree Days  
Heating Degree Days 20    
Moisture  
Dew Point 26 °F    
Average Humidity 48    
Maximum Humidity 93    
Minimum Humidity 23    
Precipitation  
Precipitation 0.00 in - - ()
Sea Level Pressure  
Sea Level Pressure 30.18 in    
Wind  
Wind Speed 3 mph (East)    
Max Wind Speed 10 mph    
Max Gust Speed -    
Visibility 10 miles    
Events      
Averages and records for this station are not official NWS values.
T = Trace of Precipitation, MM = Missing Value Source: NWS Daily Summary

Daily Weather History Graph

Daily Weather History Graph

Search for Another Location

Airport or City:

Trip Planner

Search our weather history database for the weather conditions in past years. The results will help you decide how hot, cold, wet, or windy it might be!

Date:

Astronomy

Jun. 04, 2013 Rise Set
Actual Time 5:05 AM CDT 8:55 PM CDT
Civil Twilight 4:25 AM CDT 9:35 PM CDT
Nautical Twilight 3:30 AM CDT 10:30 PM CDT
Astronomical Twilight 2:09 AM CDT 11:52 PM CDT
Moon 2:50 AM CDT (6/4) 5:11 PM CDT (6/4)
Length of Visible Light 17h 10m
Length of Day
15h 50m
Waning Crescent, 14% of the Moon is Illuminated
Jun 4
Waning Crescent
Jun 8
New
Jun 16
First Quarter
Jun 23
Full
Jun 29
Last Quarter

Hourly Weather History & Observations

Time (CDT) Temp. Windchill Dew Point Humidity Pressure Visibility Wind Dir Wind Speed Gust Speed Precip Events Conditions
12:14 AM 35.6 °F 32.8 °F 30.2 °F 81% 30.14 in 10.0 mi WNW 3.5 mph - N/A   Clear
12:34 AM 35.6 °F - 30.2 °F 81% 30.14 in 10.0 mi Calm Calm - N/A   Clear
12:53 AM 35.6 °F - 32.0 °F 87% 30.14 in 10.0 mi Calm Calm - N/A   Clear
1:14 AM 33.8 °F 30.8 °F 30.2 °F 87% 30.14 in 10.0 mi WSW 3.5 mph - N/A   Clear
1:34 AM 35.6 °F 32.8 °F 32.0 °F 87% 30.13 in 10.0 mi West 3.5 mph - N/A   Clear
1:53 AM 33.8 °F 30.8 °F 28.4 °F 81% 30.13 in 10.0 mi NNW 3.5 mph - N/A   Clear
2:14 AM 32.0 °F - 28.4 °F 87% 30.13 in 10.0 mi Calm Calm - N/A   Clear
2:34 AM 33.8 °F - 28.4 °F 81% 30.13 in 10.0 mi Calm Calm - N/A   Clear
2:53 AM 30.2 °F 24.3 °F 26.6 °F 86% 30.13 in 10.0 mi North 5.8 mph - N/A   Clear
3:13 AM 32.0 °F 28.7 °F 28.4 °F 87% 30.14 in 10.0 mi NNE 3.5 mph - N/A   Clear
3:33 AM 33.8 °F 30.8 °F 30.2 °F 87% 30.15 in 10.0 mi North 3.5 mph - N/A   Clear
3:54 AM 32.0 °F 28.7 °F 28.4 °F 87% 30.16 in 10.0 mi North 3.5 mph - N/A   Clear
4:14 AM 32.0 °F 28.7 °F 26.6 °F 80% 30.17 in 10.0 mi NNE 3.5 mph - N/A   Clear
4:33 AM 30.2 °F - 28.4 °F 93% 30.17 in 10.0 mi Calm Calm - N/A   Clear
4:53 AM 33.8 °F 29.6 °F 28.4 °F 81% 30.17 in 10.0 mi North 4.6 mph - N/A   Clear
5:13 AM 33.8 °F 30.8 °F 28.4 °F 81% 30.17 in 10.0 mi North 3.5 mph - N/A   Clear
5:33 AM 33.8 °F - 28.4 °F 81% 30.17 in 10.0 mi Calm Calm - N/A   Clear
5:54 AM 35.6 °F - 30.2 °F 81% 30.17 in 10.0 mi Calm Calm - N/A   Clear
6:14 AM 39.2 °F - 30.2 °F 70% 30.18 in 10.0 mi Calm Calm - N/A   Clear
6:33 AM 37.4 °F 34.9 °F 30.2 °F 75% 30.18 in 10.0 mi North 3.5 mph - N/A   Clear
6:53 AM 39.2 °F - 30.2 °F 70% 30.18 in 10.0 mi Calm Calm - N/A   Clear
7:13 AM 42.8 °F - 30.2 °F 61% 30.18 in 10.0 mi Calm Calm - N/A   Clear
7:34 AM 42.8 °F - 30.2 °F 61% 30.18 in 10.0 mi Calm Calm - N/A   Clear
7:54 AM 42.8 °F 41.1 °F 33.8 °F 70% 30.18 in 10.0 mi NNW 3.5 mph - N/A   Clear
8:13 AM 44.6 °F 43.1 °F 35.6 °F 71% 30.17 in 10.0 mi North 3.5 mph - N/A   Clear
8:34 AM 46.4 °F - 35.6 °F 66% 30.18 in 10.0 mi Calm Calm - N/A   Clear
8:53 AM 48.2 °F - 33.8 °F 58% 30.19 in 10.0 mi Calm Calm - N/A   Clear
9:14 AM 50.0 °F - 32.0 °F 50% 30.20 in 10.0 mi Calm Calm - N/A   Clear
9:33 AM 51.8 °F - 32.0 °F 47% 30.20 in 10.0 mi Calm Calm - N/A   Clear
9:54 AM 53.6 °F - 28.4 °F 38% 30.21 in 10.0 mi Calm Calm - N/A   Clear
10:14 AM 55.4 °F - 26.6 °F 33% 30.22 in 10.0 mi SSE 3.5 mph - N/A   Clear
10:33 AM 57.2 °F - 26.6 °F 31% 30.22 in 10.0 mi SE 5.8 mph - N/A   Clear
10:50 AM 57.2 °F - 26.6 °F 31% 30.21 in 10.0 mi Calm Calm - N/A   Scattered Clouds
11:14 AM 57.2 °F - 24.8 °F 29% 30.21 in 10.0 mi SE 5.8 mph - N/A   Scattered Clouds
11:34 AM 59.0 °F - 24.8 °F 27% 30.21 in 10.0 mi ESE 4.6 mph - N/A   Clear
11:53 AM 57.2 °F - 24.8 °F 29% 30.21 in 10.0 mi SE 4.6 mph - N/A   Clear
12:14 PM 57.2 °F - 23.0 °F 27% 30.21 in 10.0 mi ESE 5.8 mph - N/A   Clear
12:33 PM 59.0 °F - 24.8 °F 27% 30.21 in 10.0 mi East 4.6 mph - N/A   Clear
12:53 PM 57.2 °F - 21.2 °F 25% 30.21 in 10.0 mi East 8.1 mph - N/A   Scattered Clouds
1:14 PM 57.2 °F - 21.2 °F 25% 30.21 in 10.0 mi ESE 6.9 mph - N/A   Scattered Clouds
1:34 PM 57.2 °F - 23.0 °F 27% 30.21 in 10.0 mi SE 5.8 mph - N/A   Scattered Clouds
1:53 PM 57.2 °F - 23.0 °F 27% 30.21 in 10.0 mi SE 6.9 mph - N/A   Scattered Clouds
2:13 PM 60.8 °F - 23.0 °F 23% 30.20 in 10.0 mi ESE 4.6 mph - N/A   Scattered Clouds
2:33 PM 60.8 °F - 23.0 °F 23% 30.19 in 10.0 mi ESE 8.1 mph - N/A   Clear
2:54 PM 59.0 °F - 21.2 °F 23% 30.20 in 10.0 mi ESE 9.2 mph - N/A   Clear
3:13 PM 59.0 °F - 23.0 °F 25% 30.20 in 10.0 mi ESE 8.1 mph - N/A   Scattered Clouds
3:34 PM 57.2 °F - 23.0 °F 27% 30.21 in 10.0 mi SSE 4.6 mph - N/A   Scattered Clouds
3:53 PM 55.4 °F - 23.0 °F 29% 30.21 in 10.0 mi SE 5.8 mph - N/A   Clear
4:14 PM 55.4 °F - 23.0 °F 29% 30.20 in 10.0 mi East 4.6 mph - N/A   Scattered Clouds
4:33 PM 55.4 °F - 21.2 °F 26% 30.20 in 10.0 mi ENE 5.8 mph - N/A   Scattered Clouds
4:54 PM 57.2 °F - 21.2 °F 25% 30.20 in 10.0 mi ENE 5.8 mph - N/A   Scattered Clouds
5:13 PM 57.2 °F - 21.2 °F 25% 30.19 in 10.0 mi ENE 9.2 mph - N/A   Scattered Clouds
5:33 PM 55.4 °F - 19.4 °F 25% 30.18 in 10.0 mi ENE 9.2 mph - N/A   Scattered Clouds
5:54 PM 55.4 °F - 19.4 °F 25% 30.19 in 10.0 mi ENE 10.4 mph - N/A   Mostly Cloudy
6:13 PM 55.4 °F - 17.6 °F 23% 30.19 in 10.0 mi East 6.9 mph - N/A   Scattered Clouds
6:33 PM 55.4 °F - 19.4 °F 25% 30.19 in 10.0 mi ENE 6.9 mph - N/A   Mostly Cloudy
6:54 PM 55.4 °F - 21.2 °F 26% 30.19 in 10.0 mi East 4.6 mph - N/A   Scattered Clouds
7:13 PM 55.4 °F - 21.2 °F 26% 30.19 in 10.0 mi East 4.6 mph - N/A   Scattered Clouds
7:34 PM 53.6 °F - 23.0 °F 30% 30.19 in 10.0 mi ENE 5.8 mph - N/A   Scattered Clouds
7:54 PM 53.6 °F - 23.0 °F 30% 30.18 in 10.0 mi ENE 5.8 mph - N/A   Scattered Clouds
8:14 PM 53.6 °F - 23.0 °F 30% 30.18 in 10.0 mi ENE 6.9 mph - N/A   Mostly Cloudy
8:33 PM 51.8 °F - 23.0 °F 33% 30.18 in 10.0 mi East 5.8 mph - N/A   Overcast
8:54 PM 51.8 °F - 23.0 °F 33% 30.18 in 10.0 mi ENE 5.8 mph - N/A   Overcast
9:13 PM 51.8 °F - 23.0 °F 33% 30.19 in 10.0 mi East 6.9 mph - N/A   Overcast
9:33 PM 51.8 °F - 23.0 °F 33% 30.19 in 10.0 mi East 8.1 mph - N/A   Mostly Cloudy
9:54 PM 51.8 °F - 23.0 °F 33% 30.19 in 10.0 mi East 6.9 mph - N/A   Overcast
10:13 PM 51.8 °F - 23.0 °F 33% 30.19 in 10.0 mi East 6.9 mph - N/A   Overcast
10:33 PM 51.8 °F - 21.2 °F 30% 30.19 in 10.0 mi East 6.9 mph - N/A   Overcast
10:54 PM 51.8 °F - 21.2 °F 30% 30.20 in 10.0 mi East 5.8 mph - N/A   Mostly Cloudy
11:13 PM 50.0 °F - 23.0 °F 35% 30.19 in 10.0 mi East 5.8 mph - N/A   Scattered Clouds
11:33 PM 48.2 °F - 23.0 °F 37% 30.19 in 10.0 mi East 5.8 mph - N/A   Scattered Clouds
11:54 PM 48.2 °F - 23.0 °F 37% 30.19 in 10.0 mi ENE 4.6 mph - N/A   Scattered Clouds